Location: Phoenix
(33.4480°N, 112.0730°W)
Time: 06:44:12
(UTC-07:00)

ISS - All Passes

Search period start: 16 April 2014 00:00
Search period end: 26 April 2014 00:00
Orbit: 414 x 420 km, 51.6° (Epoch: 16 April)

Date Brightness Start Highest point End Pass type
(mag) Time Alt. Az. Time Alt. Az. Time Alt. Az.
16 Apr - 00:03:10 10° NW 00:06:28 57° SW 00:09:45 10° SSE night (unlit)
16 Apr - 15:06:33 10° SSW 15:09:33 31° SE 15:12:34 10° ENE daylight
16 Apr - 16:43:42 10° W 16:46:20 21° NW 16:48:58 10° NNE daylight
16 Apr - 23:14:55 10° NW 23:18:16 70° NE 23:21:36 10° SE night (unlit)
17 Apr - 14:19:14 10° S 14:21:26 17° SE 14:23:38 10° E daylight
17 Apr - 15:54:51 10° WSW 15:57:57 35° NW 16:01:04 10° NNE daylight
17 Apr - 22:26:49 10° NNW 22:29:58 36° NE 22:33:05 10° ESE visible
18 Apr - 00:04:19 10° W 00:06:28 16° SW 00:08:37 10° SSW night (unlit)
18 Apr - 15:06:18 10° SW 15:09:37 67° NW 15:12:57 10° NE daylight
18 Apr - 21:38:52 10° NNW 21:41:32 22° NE 21:44:12 10° E visible
18 Apr - 23:15:18 10° WNW 23:18:18 30° SW 23:21:17 10° SSE night (unlit)
19 Apr - 14:18:01 10° SW 14:21:18 59° SE 14:24:36 10° NE daylight
19 Apr - 15:56:22 10° WNW 15:58:18 14° NNW 16:00:15 10° N daylight
19 Apr - 20:51:08 10° N 20:53:00 14° NNE 20:54:52 10° ENE visible
19 Apr - 22:26:43 10° NW 22:30:02 63° SW 22:33:20 10° SE visible
20 Apr - 13:30:05 10° SSW 13:33:01 29° SE 13:35:57 10° ENE daylight
20 Apr - 15:07:03 10° W 15:09:45 22° NW 15:12:27 10° NNE daylight
20 Apr - 21:38:19 10° NW 21:41:39 64° NE 21:44:58 10° SE visible
21 Apr - 12:42:43 10° SSE 12:44:44 15° SE 12:46:46 10° E daylight
21 Apr - 14:18:05 10° WSW 14:21:13 38° NW 14:24:22 10° NNE daylight
21 Apr - 20:50:05 10° NNW 20:53:10 33° NE 20:56:15 10° ESE visible
21 Apr - 22:27:24 10° W 22:29:42 18° SW 22:32:00 10° S visible
22 Apr - 13:29:24 10° SW 13:32:43 74° NW 13:36:04 10° NE daylight
22 Apr - 15:09:31 10° NW 15:09:58 10° NNW 15:10:24 10° NNW daylight
22 Apr - 20:02:00 10° NNW 20:04:35 20° NE 20:07:09 10° E visible
22 Apr - 21:38:18 10° WNW 21:41:22 33° SW 21:44:24 10° SSE visible
23 Apr - 12:41:01 10° SSW 12:44:15 53° SE 12:47:31 10° NE daylight
23 Apr - 14:19:09 10° WNW 14:21:13 15° NNW 14:23:17 10° N daylight
23 Apr - 19:14:10 10° N 19:15:52 13° NNE 19:17:34 10° ENE daylight
23 Apr - 20:49:35 10° NW 20:52:55 70° SW 20:56:14 10° SE visible
24 Apr - 11:52:59 10° S 11:55:49 26° SE 11:58:39 10° ENE daylight
24 Apr - 13:29:44 10° W 13:32:30 24° NW 13:35:17 10° NNE daylight
24 Apr - 20:01:04 10° NW 20:04:22 57° NE 20:07:40 10° ESE visible
25 Apr - 11:05:37 10° SSE 11:07:23 14° SE 11:09:10 10° E daylight
25 Apr - 12:40:39 10° WSW 12:43:49 41° NW 12:47:00 10° NNE daylight
25 Apr - 19:12:42 10° NNW 19:15:43 31° NE 19:18:43 10° ESE daylight
25 Apr - 20:49:49 10° W 20:52:16 19° SW 20:54:44 10° S visible
